Tracking 28514 objects as of 23-Feb-2024
HD Live streaming from Space Station
objects crossing your sky now

ARIANE 5 R/B

Track ARIANE 5 R/B now!


NORAD ID: 40942
Int'l Code: 2015-054C
Perigee: 228.2 km
Apogee: 30,733.1 km
Inclination: 6.1 °
Period: 535.8 minutes
Semi major axis: 21851 km
RCS: Unknown
Launch date: September 30, 2015
Source: France (FR)
Launch site: FRENCH GUIANA (FRGUI)

Note: This is a ROCKET BODY
Your satellite tracking list
Your tracking list is empty




NASA's NSSDC Master Catalog

Two Line Element Set (TLE):
1 40942U 15054C   24054.12080414  .00004985  00000-0  55661-3 0  9991
2 40942   6.0695 172.3089 6979997  81.9059 345.5029  2.68766876 75584
Source of the keplerian elements: AFSPC